Location: Haliburton Scout Reserve
(45.0900°N, 78.3200°W)
Time: 04:51:35
(UTC-04:00)

PCSat - Pass Details

Date: 01 June 2022
Orbit: 784 x 795 km, 67.1° (Epoch: 24 June)

Event Time Altitude Azimuth Distance (km) Brightness Sun altitude
Rises 00:22:38 0° 333° (NNW) 3,305 14.1 -22.0°
Reaches altitude 10° 00:25:18 10° 343° (NNW) 2,372 13.2 -22.1°
Maximum altitude 00:30:11 32° 46° (NE) 1,330 11.0 -22.2°
Enters shadow 00:33:47 16° 102° (ESE) 1,967 11.4 -22.3°
